Location: Unspecified
(51.0950°N, 12.9690°E)
Time: 22:43:22
(UTC+00:00)

Meteor 1-4 Rocket - Pass Details

Date: 28 October 2021
Orbit: 446 x 496 km, 81.2° (Epoch: 01 December)

Event Time Altitude Azimuth Distance (km) Brightness Sun altitude
Rises 16:36:01 0° 169° (S) 2,453 6.2 -7.9°
Reaches altitude 10° 16:38:12 10° 160° (SSE) 1,580 5.1 -8.2°
Maximum altitude 16:41:19 33° 95° (E) 777 3.1 -8.7°
Drops below altitude 10° 16:44:28 10° 29° (NNE) 1,586 4.8 -9.2°
Sets 16:46:39 0° 20° (NNE) 2,463 5.9 -9.5°
